Weather History for Sioux Falls, SD

Change the Weather History Date:

Sunday, October 20, 2013

  Actual Average Record
Temperature  
Mean Temperature 44 °F 46 °F  
Max Temperature 54 °F 58 °F 85 °F (1947)
Min Temperature 34 °F 35 °F 13 °F (1917)
Degree Days  
Heating Degree Days 21 19  
Month to date heating degree days 252 300  
Since 1 July heating degree days 352 504  
Cooling Degree Days 0 0  
Month to date cooling degree days 3 0  
Year to date cooling degree days 787 685  
Moisture  
Dew Point 35 °F    
Average Humidity 71    
Maximum Humidity 85    
Minimum Humidity 57    
Precipitation  
Precipitation 0.01 in 0.07 in 1.05 in (1905)
Month to date precipitation 2.67 1.60  
Year to date precipitation 23.86 23.76  
Snow  
Snow 0.00 in 0.10 in 5.00 in (1905)
Month to date snowfall 0.0 0.5  
Since 1 July snowfall 0.0 0.5  
Since 1 September snowfall 0.0 0.5  
Snow Depth 0.00 in    
Sea Level Pressure  
Sea Level Pressure 29.82 in    
Wind  
Wind Speed 11 mph (NW)    
Max Wind Speed 26 mph    
Max Gust Speed 35 mph    
Visibility 10 miles    
Events Rain    
T = Trace of Precipitation, MM = Missing Value Source: NWS Daily Summary

Daily Weather History Graph

Daily Weather History Graph

Search for Another Location

Airport:

Trip Planner

Search our weather history database for the weather conditions in past years. The results will help you decide how hot, cold, wet, or windy it might be!

Date:

Astronomy

Oct. 20, 2013 Rise Set
Actual Time 7:47 AM CDT 6:35 PM CDT
Civil Twilight 7:18 AM CDT 7:04 PM CDT
Nautical Twilight 6:45 AM CDT 7:37 PM CDT
Astronomical Twilight 6:12 AM CDT 8:10 PM CDT
Moon 7:41 PM CDT (10/20) 9:29 AM CDT (10/20)
Length of Visible Light 11h 45m
Length of Day
10h 47m
Full, 97% of the Moon is Illuminated
Oct 20
Full
Oct 26
Last Quarter
Nov 3
New
Nov 9
First Quarter
Nov 17
Full

Hourly Weather History & Observations

Time (CDT) Temp. Windchill Dew Point Humidity Pressure Visibility Wind Dir Wind Speed Gust Speed Precip Events Conditions
12:56 AM 42.1 °F 36.6 °F 28.9 °F 60% 29.77 in 10.0 mi SE 9.2 mph - N/A   Overcast
1:56 AM 42.1 °F 37.1 °F 28.9 °F 60% 29.75 in 10.0 mi SSE 8.1 mph - N/A   Overcast
2:56 AM 42.1 °F 37.7 °F 30.0 °F 62% 29.74 in 10.0 mi SE 6.9 mph - N/A   Overcast
3:56 AM 42.1 °F 37.7 °F 30.9 °F 65% 29.70 in 10.0 mi SSE 6.9 mph - N/A   Overcast
4:56 AM 42.1 °F 38.4 °F 32.0 °F 67% 29.68 in 10.0 mi SSE 5.8 mph - N/A   Overcast
5:56 AM 41.0 °F 38.0 °F 33.1 °F 73% 29.68 in 10.0 mi SSE 4.6 mph - N/A   Overcast
6:56 AM 41.0 °F 37.1 °F 34.0 °F 76% 29.67 in 10.0 mi South 5.8 mph - N/A   Overcast
7:56 AM 43.0 °F 41.3 °F 36.0 °F 76% 29.67 in 10.0 mi Variable 3.5 mph - N/A   Overcast
8:56 AM 46.0 °F 41.9 °F 37.9 °F 73% 29.70 in 10.0 mi West 8.1 mph - N/A   Mostly Cloudy
9:56 AM 50.0 °F - 39.0 °F 66% 29.70 in 10.0 mi WNW 12.7 mph 20.7 mph N/A   Scattered Clouds
10:56 AM 53.1 °F - 39.0 °F 59% 29.71 in 10.0 mi NW 19.6 mph 29.9 mph N/A   Mostly Cloudy
11:56 AM 52.0 °F - 39.0 °F 61% 29.73 in 10.0 mi WNW 18.4 mph 28.8 mph N/A   Mostly Cloudy
12:56 PM 50.0 °F - 39.0 °F 66% 29.75 in 10.0 mi WNW 18.4 mph 24.2 mph N/A   Overcast
1:56 PM 50.0 °F - 39.9 °F 68% 29.75 in 10.0 mi WNW 15.0 mph 28.8 mph N/A   Overcast
2:44 PM 48.2 °F - 41.0 °F 76% 29.74 in 10.0 mi WNW 17.3 mph 26.5 mph N/A   Overcast
2:54 PM 48.2 °F - 41.0 °F 76% 29.75 in 10.0 mi WNW 16.1 mph 28.8 mph N/A   Overcast
2:56 PM 48.0 °F - 41.0 °F 77% 29.78 in 10.0 mi WNW 15.0 mph 28.8 mph N/A   Overcast
3:16 PM 48.2 °F - 39.2 °F 71% 29.76 in 10.0 mi WNW 15.0 mph 31.1 mph N/A   Overcast
3:56 PM 46.9 °F - 37.9 °F 71% 29.81 in 10.0 mi WNW 15.0 mph 28.8 mph N/A   Overcast
4:56 PM 44.1 °F 36.5 °F 36.0 °F 73% 29.85 in 10.0 mi NW 17.3 mph 31.1 mph N/A   Overcast
5:56 PM 42.1 °F 34.2 °F 34.0 °F 73% 29.91 in 10.0 mi NNW 16.1 mph 26.5 mph N/A   Overcast
6:56 PM 39.9 °F 31.8 °F 33.1 °F 77% 29.94 in 10.0 mi NNW 15.0 mph 24.2 mph N/A   Overcast
7:23 PM 39.2 °F 32.5 °F 32.0 °F 75% 29.93 in 10.0 mi NNW 10.4 mph 20.7 mph N/A   Overcast
7:56 PM 39.0 °F 32.3 °F 33.1 °F 79% 29.98 in 10.0 mi NW 10.4 mph - N/A   Overcast
8:13 PM 39.2 °F 32.0 °F 33.8 °F 81% 29.95 in 10.0 mi NNW 11.5 mph 20.7 mph 0.00 in Rain Light Rain
8:56 PM 37.0 °F 27.7 °F 34.0 °F 89% 30.00 in 9.0 mi NNW 16.1 mph 24.2 mph 0.01 in Rain Light Rain
9:07 PM 37.4 °F 30.3 °F 33.8 °F 87% 29.97 in 10.0 mi NW 10.4 mph - 0.00 in   Overcast
9:56 PM 37.9 °F 32.1 °F 33.1 °F 83% 30.01 in 10.0 mi NW 8.1 mph - 0.00 in   Overcast
10:50 PM 37.4 °F 30.8 °F 32.0 °F 81% 29.99 in 10.0 mi NW 9.2 mph - N/A   Overcast
10:56 PM 37.9 °F 30.9 °F 33.1 °F 83% 30.01 in 10.0 mi NW 10.4 mph - N/A   Overcast
11:25 PM 37.4 °F 29.8 °F 30.2 °F 75% 30.00 in 10.0 mi North 11.5 mph - N/A   Mostly Cloudy
11:56 PM 36.0 °F 28.0 °F 28.9 °F 76% 30.04 in 10.0 mi NNW 11.5 mph - N/A   Mostly Cloudy